Temperature
18 18 18 18 18 18 18 17 17 17 17 17 17 17 17 17 18 18 18 18 18 18 18 18 18 18 18 18 17 17 17 17 17 17 17 17 17 17 17 17 17 17 17
17 17 17 17 17 17 17 17 17 17 17 17 17 17 17 17 18 18 18 18 18 18 18 18 18 18 18 18 17 17 17 17 17 16 16 17 17 17 17 17 17 17 17
17 17 17 17 17 17 17 17 17 17 17 17 17 17 17 17 17 17 17 17 17 18 18 18 18 18 18 18 17 17 17 17 17 17 16 16 17 17 17 17 17 17 17
16 16 16 17 17 17 17 17 17 17 17 17 17 17 17 17 17 17 17 17 17 17 17 18 18 18 18 17 17 17 17 17 17 17 17 16 16 17 17 17 17 17 17
16 16 16 16 17 17 17 17 17 17 17 17 17 17 17 17 17 17 17 17 17 17 17 17 17 18 17 17 17 17 17 17 17 17 17 17 16 17 17 17 17 16 17
15 15 16 16 16 16 16 17 17 16 17 17 17 17 17 17 17 17 17 17 17 17 17 17 17 17 17 17 17 17 17 17 17 17 17 17 17 17 17 17 17 17 17
15 15 15 15 16 16 16 16 16 16 16 16 16 17 17 17 17 17 17 17 17 17 17 17 17 17 17 17 17 17 17 17 17 17 17 17 17 17 17 17 17 17 17
15 15 15 15 15 16 16 16 16 16 17 16 16 17 18 18 17 17 17 16 17 17 17 17 17 16 16 17 17 17 17 17 17 17 17 17 17 17 17 17 17 17 17
15 15 15 15 15 15 16 16 15 15 16 16 16 17 18 20 20 18 17 16 16 16 17 17 16 16 16 16 17 17 17 17 17 17 17 17 17 17 17 17 17 17 17
14 15 15 15 15 15 15 15 15 15 15 16 16 16 16 17 18 19 17 17 16 16 17 17 17 16 16 16 16 17 17 17 17 17 17 17 17 17 17 17 17 17 17
13 14 14 14 14 14 14 15 15 15 15 15 16 16 16 15 16 17 19 18 17 16 16 16 16 16 16 16 16 16 17 17 17 17 17 17 17 17 17 17 17 17 17
13 13 13 13 14 14 14 14 14 14 15 15 15 16 16 16 16 17 18 17 18 17 16 16 16 16 16 16 16 17 17 17 17 17 17 17 17 17 17 17 17 17 17
13 12 12 12 12 13 13 13 14 14 14 14 15 15 16 16 17 17 17 18 17 17 16 16 16 15 15 16 16 17 17 17 17 17 17 17 17 17 17 17 16 16 16
12 12 11 11 12 12 12 12 13 13 13 14 14 14 15 15 16 16 16 17 17 17 17 16 15 15 15 15 16 16 16 17 17 17 17 17 17 17 17 17 16 16 16
11 11 11 11 11 11 11 11 12 12 13 13 13 14 14 15 15 15 16 16 17 18 18 16 15 15 15 15 16 16 16 17 17 17 17 17 17 17 17 17 16 16 16
10 10 10 10 10 10 10 11 11 11 11 12 13 13 13 14 14 15 15 15 16 17 18 17 15 15 14 15 15 15 16 16 16 16 17 17 17 16 16 16 16 16 16
10 10 10 10 10 10 10 10 10 10 11 11 11 12 12 13 14 14 14 15 15 15 16 17 15 14 14 14 14 14 15 15 16 16 16 16 16 16 16 16 16 15 15
9 9 10 10 10 10 10 10 10 10 10 10 10 11 12 12 13 13 14 14 14 15 15 16 15 14 14 14 14 14 14 14 15 15 15 15 15 15 15 15 15 15 15
8 8 9 9 10 10 10 10 10 10 10 10 10 10 10 11 12 12 13 13 14 14 14 15 15 14 13 13 13 13 13 13 14 14 14 14 15 15 15 15 14 14 14
7 7 8 9 9 9 10 10 10 9 9 9 9 9 10 10 11 11 12 12 13 13 13 14 14 14 13 13 13 13 12 12 12 13 13 13 14 14 14 14 14 14 14
7 7 7 8 9 9 9 10 9 9 9 9 9 9 9 10 10 10 11 11 12 12 13 13 14 14 13 13 12 12 12 12 12 12 12 12 12 12 13 13 13 13 13
6 6 7 7 8 9 9 9 9 9 9 9 9 9 9 9 10 10 10 10 11 11 12 13 13 13 13 13 12 12 12 11 11 11 11 11 11 11 12 12 12 12 12
5 6 6 6 7 8 8 9 9 9 9 9 9 9 9 10 9 9 10 10 10 11 11 12 13 13 13 13 13 12 12 11 11 11 11 11 10 11 11 11 11 11 12
5 5 5 6 6 7 7 8 8 8 8 9 9 9 9 9 9 9 9 9 10 10 11 11 12 12 12 13 13 12 12 11 11 11 10 10 10 10 10 10 10 10 11
5 5 5 5 5 6 7 7 8 8 8 8 8 9 9 9 9 9 9 9 9 10 10 11 11 12 12 12 12 12 11 11 10 10 10 10 9 9 9 9 9 9 9
5 5 5 5 5 6 6 7 7 7 8 8 8 8 8 9 9 9 9 9 9 9 10 10 11 11 11 11 12 12 12 11 11 9 9 10 9 9 8 8 8 8 8
Wind_Speed
12 11 9 10 12 12 11 11 12 12 13 13 14 15 14 16 15 15 12 15 17 19 20 20 19 19 18 19 21 23 23 23 25 26 25 25 23 22 21 20 19 18 18
11 10 11 10 11 12 12 11 12 12 12 11 14 14 15 16 15 16 16 14 18 19 21 21 20 20 19 18 19 21 22 23 24 26 27 26 26 24 23 23 21 20 20
12 11 11 11 11 12 12 11 12 11 11 12 14 15 13 14 14 15 16 14 14 19 21 20 20 20 20 19 20 21 21 22 22 23 26 27 27 26 26 25 24 23 22
13 10 10 10 10 10 9 10 10 9 10 10 11 11 11 11 13 14 14 14 14 14 18 22 21 20 21 21 21 22 21 22 23 23 24 26 27 28 27 26 26 26 25
10 8 9 9 9 8 9 10 9 8 9 9 10 10 10 11 11 13 13 14 15 14 13 16 21 20 21 22 23 23 23 23 23 23 24 25 26 28 28 27 27 27 27
7 7 7 7 7 7 7 7 8 7 7 8 10 9 9 9 10 11 12 12 12 14 15 14 14 17 21 21 22 23 24 25 25 24 24 24 26 27 28 28 28 28 27
6 6 6 5 6 7 7 7 7 8 8 7 8 8 9 11 11 9 10 10 11 12 13 12 13 12 13 22 22 21 24 25 25 25 25 25 25 26 26 27 28 28 28
8 6 5 4 5 5 6 6 7 8 7 7 7 8 8 8 8 10 9 10 10 10 11 13 12 11 12 11 16 23 22 24 25 26 26 26 26 25 25 26 26 27 28
7 7 7 6 6 7 7 7 8 10 9 8 8 8 7 7 5 7 8 8 8 8 9 9 10 11 12 12 11 19 22 22 23 25 25 26 26 26 26 27 27 27 27
7 7 6 6 6 7 7 8 9 9 10 9 8 8 9 7 5 4 7 8 9 9 9 7 8 9 10 11 10 7 14 17 19 21 23 24 26 26 27 27 27 27 27
6 6 5 5 5 6 7 8 8 9 9 11 9 8 9 8 9 8 6 7 8 8 8 8 7 7 8 9 9 8 10 13 16 17 19 20 23 25 26 27 27 26 25
5 5 5 4 4 5 6 7 8 11 11 11 10 9 8 8 9 9 8 7 7 6 6 6 6 6 6 7 6 2 3 9 12 14 15 17 19 22 24 26 26 26 25
8 6 6 5 5 4 6 7 8 10 11 12 12 10 10 10 8 8 8 7 6 5 5 6 5 4 4 3 2 1 3 5 8 11 13 14 16 17 20 23 24 24 24
11 9 9 8 7 6 6 6 7 9 9 11 13 13 10 11 10 9 9 8 7 7 7 6 5 5 3 3 2 4 3 3 4 6 8 10 12 13 15 17 19 19 19
12 12 12 11 10 9 8 7 7 8 8 10 11 13 12 11 10 10 10 9 9 8 7 7 6 5 4 3 2 2 4 8 6 5 6 7 8 8 10 11 12 14 15
15 15 15 14 13 12 11 10 9 8 8 9 9 12 12 11 11 11 11 10 10 9 6 6 6 6 4 4 5 6 8 11 11 10 9 9 9 8 9 10 10 11 11
16 16 16 16 16 15 13 12 12 10 10 9 9 11 13 13 10 11 11 11 11 10 8 6 6 7 6 5 6 6 6 7 10 13 13 13 12 12 12 12 12 12 12
17 18 17 17 18 17 16 15 14 13 12 11 10 9 11 10 12 11 11 13 11 10 10 9 7 7 7 7 7 7 6 8 10 14 16 16 16 15 15 15 15 15 15
17 18 18 18 18 18 18 17 16 14 13 13 12 11 10 10 11 10 11 11 11 11 10 9 8 7 7 8 9 8 8 8 9 13 16 16 17 17 17 17 17 18 18
17 18 18 19 19 19 19 18 17 16 15 14 13 12 11 9 9 10 10 9 9 10 11 10 8 9 8 9 9 8 7 6 7 8 11 14 17 18 17 17 17 18 19
18 18 18 18 18 18 18 18 17 17 16 15 14 13 13 12 11 8 7 7 7 7 9 10 9 8 9 10 9 7 8 8 6 6 8 8 9 10 12 15 16 18 20
18 18 18 18 18 17 16 15 16 17 15 15 14 13 12 13 14 14 12 10 9 8 8 9 9 10 11 12 11 11 10 9 5 5 7 7 7 8 8 12 16 19 20
18 17 17 17 18 18 13 13 15 17 16 15 14 13 12 12 14 13 14 13 12 11 10 7 8 9 11 12 13 15 13 12 7 9 8 7 7 9 10 14 17 19 21
16 15 16 16 16 16 14 14 14 17 17 16 15 14 13 11 12 12 12 12 12 13 12 11 10 9 8 10 14 14 13 10 10 7 6 7 8 9 10 12 15 18 20
15 15 14 14 15 14 13 14 14 14 15 16 16 15 14 13 10 10 11 12 12 12 13 13 10 7 6 7 11 12 13 13 9 6 4 6 10 10 10 9 13 16 18
14 13 12 12 13 13 12 14 15 13 13 13 13 13 12 11 11 13 12 11 12 11 11 12 11 9 9 10 14 16 16 15 12 7 7 8 12 9 7 8 10 13 14
Wind_Direction
241 237 235 235 237 236 230 231 236 237 238 238 237 233 233 234 238 238 232 205 212 221 227 228 226 225 224 224 223 222 222 223 220 215 213 213 212 210 208 207 206 204 203
247 245 240 235 236 238 241 240 240 241 242 242 241 237 236 234 235 236 238 224 216 221 226 226 225 223 222 222 221 222 223 224 226 223 218 215 214 212 210 209 208 207 206
250 246 246 241 239 239 237 240 243 244 245 244 242 242 238 237 233 232 235 235 227 219 222 224 222 222 221 220 220 220 222 223 224 226 225 220 216 214 212 210 209 208 208
251 250 249 248 245 241 237 237 239 241 245 248 247 246 242 237 237 235 234 231 234 233 218 216 219 221 219 218 218 216 217 218 219 222 226 224 220 215 214 213 211 209 208
260 260 253 251 248 238 237 242 235 240 245 246 247 241 241 238 237 236 232 233 230 232 234 209 211 220 222 221 219 216 214 213 215 218 222 224 223 218 215 214 214 213 211
276 273 263 262 256 245 238 238 249 241 253 251 253 250 238 235 234 235 234 233 229 228 230 229 217 218 218 223 221 217 215 211 210 214 218 221 224 221 216 215 215 215 214
330 289 278 276 266 255 251 249 248 241 242 243 249 250 242 237 237 237 237 241 235 230 232 229 232 233 213 213 217 217 215 214 212 213 216 217 221 221 218 217 217 216 216
347 334 312 289 279 279 267 263 252 261 253 233 244 252 247 229 221 229 227 226 235 230 228 226 228 227 238 224 210 208 214 217 217 215 215 215 215 216 217 220 220 220 219
353 354 338 329 315 296 279 265 252 247 254 241 235 248 254 248 217 197 217 220 217 223 227 223 224 224 226 234 227 203 207 214 219 220 218 215 213 214 215 218 220 221 220
351 349 345 338 324 302 289 273 253 246 246 248 230 235 256 291 270 214 196 203 206 216 229 228 230 223 229 234 229 228 203 213 219 224 223 219 214 211 212 215 218 219 219
336 337 337 336 326 310 299 284 278 254 243 247 245 229 227 230 242 265 231 194 199 210 215 224 236 238 234 238 239 228 196 214 221 224 225 223 218 213 211 212 215 216 216
304 308 311 314 310 306 301 293 280 261 253 249 252 246 231 225 224 230 238 225 217 209 210 224 231 228 230 239 235 69 204 226 225 224 224 223 220 216 214 213 214 214 214
290 286 285 281 281 281 286 290 284 276 264 252 244 243 244 241 237 230 235 230 226 213 206 217 206 210 212 226 220 42 217 227 225 222 221 219 218 215 213 213 213 213 213
286 285 271 262 259 261 266 270 276 275 271 263 252 245 244 242 238 230 231 229 223 217 206 204 176 183 178 185 98 267 174 145 193 203 206 208 208 207 207 207 207 208 208
278 273 265 259 254 249 251 255 258 267 272 267 261 251 242 239 236 232 229 229 231 226 204 181 191 163 167 133 115 110 89 81 98 129 151 163 168 177 186 190 193 197 198
278 273 267 261 255 249 242 243 251 251 257 262 263 260 249 242 234 227 224 223 227 238 231 171 175 160 146 136 109 100 98 98 82 92 107 119 128 138 148 155 158 163 169
277 271 264 260 255 250 245 240 244 245 247 254 257 259 253 249 242 230 222 219 218 220 223 196 172 152 156 152 130 115 107 101 90 85 93 100 107 114 120 126 131 135 139
276 270 264 258 254 251 247 242 242 242 241 243 245 251 256 248 244 242 229 220 215 213 217 208 182 171 166 154 135 122 110 96 94 86 89 91 94 98 103 107 112 115 117
279 272 265 258 252 250 248 243 242 242 240 240 238 238 245 251 241 237 240 230 218 210 215 212 196 171 160 150 137 122 110 106 100 101 93 90 90 92 95 98 102 105 106
281 272 265 259 253 248 244 241 238 237 238 238 236 233 229 230 243 237 236 240 230 215 208 213 198 177 165 160 154 144 129 118 109 103 92 95 94 90 91 95 99 101 102
282 275 266 258 252 247 241 235 234 235 233 235 234 230 226 218 220 235 239 234 236 226 212 209 202 185 174 171 170 160 142 123 102 116 118 114 115 110 105 101 100 103 104
285 279 270 260 251 246 237 224 228 236 234 232 233 231 226 211 212 215 229 233 233 232 227 216 208 198 188 183 172 160 151 147 137 144 127 114 114 109 107 103 106 108 107
287 279 272 263 254 248 237 213 215 233 235 233 231 229 230 214 198 207 210 217 225 232 244 242 237 220 197 187 175 170 171 169 149 153 137 117 113 101 97 101 109 111 110
288 282 273 266 258 246 223 207 206 227 235 233 230 227 227 224 208 207 206 210 218 216 219 228 240 245 228 195 184 177 161 131 119 134 139 125 123 112 108 108 108 111 113
288 281 271 265 257 246 219 201 202 225 229 232 229 225 222 222 192 191 213 214 216 215 209 213 228 255 265 202 175 159 150 145 141 149 155 132 136 124 117 118 115 113 115
286 280 269 262 254 243 216 196 203 223 226 227 223 223 219 224 182 184 216 220 220 216 204 201 210 223 219 188 173 174 168 163 152 153 171 148 150 140 128 135 140 139 129
Height
1523 1523 1523 1524 1526 1528 1529 1529 1530 1531 1531 1533 1534 1535 1535 1536 1537 1539 1540 1540 1542 1544 1546 1547 1549 1551 1553 1556 1558 1560 1563 1565 1567 1570 1572 1574 1576 1578 1580 1582 1584 1586 1588
1516 1517 1517 1518 1519 1521 1523 1524 1524 1525 1526 1527 1528 1529 1530 1531 1531 1533 1534 1536 1537 1538 1540 1542 1544 1546 1548 1550 1553 1555 1558 1560 1562 1565 1568 1570 1572 1575 1577 1579 1582 1584 1586
1509 1510 1511 1512 1513 1515 1516 1517 1518 1519 1520 1521 1522 1523 1524 1525 1525 1526 1528 1531 1532 1533 1535 1537 1539 1541 1543 1545 1547 1550 1553 1555 1558 1560 1563 1566 1568 1571 1573 1576 1578 1581 1583
1502 1503 1504 1505 1507 1509 1510 1512 1513 1513 1514 1515 1516 1517 1518 1519 1520 1521 1523 1524 1527 1529 1530 1531 1534 1535 1538 1540 1542 1545 1547 1550 1552 1555 1558 1561 1563 1566 1569 1572 1574 1577 1580
1495 1497 1497 1499 1501 1502 1504 1506 1508 1509 1510 1510 1511 1512 1512 1513 1514 1516 1517 1519 1521 1523 1525 1526 1527 1530 1532 1534 1537 1539 1541 1544 1547 1550 1553 1555 1558 1561 1564 1567 1570 1573 1576
1490 1491 1491 1493 1495 1498 1500 1501 1503 1504 1505 1506 1508 1509 1509 1509 1510 1511 1513 1515 1516 1517 1519 1522 1523 1524 1526 1528 1531 1533 1536 1538 1541 1544 1547 1550 1553 1556 1560 1562 1565 1568 1571
1486 1486 1487 1488 1491 1494 1495 1497 1499 1500 1501 1503 1504 1505 1505 1505 1506 1507 1508 1510 1512 1513 1515 1516 1518 1520 1521 1522 1524 1527 1529 1532 1535 1538 1541 1545 1548 1551 1555 1557 1560 1563 1566
1487 1485 1485 1485 1487 1489 1491 1493 1495 1497 1498 1500 1501 1501 1501 1502 1501 1502 1503 1504 1506 1508 1510 1512 1513 1514 1516 1518 1519 1521 1524 1527 1530 1533 1536 1539 1542 1545 1549 1552 1555 1558 1561
1486 1484 1483 1483 1484 1486 1488 1490 1492 1493 1495 1497 1498 1499 1498 1497 1497 1498 1499 1500 1501 1504 1506 1508 1509 1510 1511 1513 1515 1516 1518 1521 1524 1526 1530 1533 1536 1540 1543 1546 1549 1553 1556
1485 1483 1482 1481 1481 1483 1484 1486 1488 1489 1491 1493 1494 1494 1496 1496 1496 1495 1496 1497 1498 1499 1502 1504 1506 1506 1507 1508 1510 1511 1513 1515 1518 1520 1523 1527 1530 1534 1537 1540 1544 1547 1550
1483 1481 1480 1479 1479 1479 1480 1482 1483 1485 1487 1489 1490 1491 1491 1492 1494 1494 1493 1495 1495 1497 1498 1499 1501 1502 1503 1504 1505 1506 1507 1510 1512 1515 1518 1521 1524 1528 1531 1534 1537 1541 1544
1482 1479 1477 1476 1476 1476 1476 1476 1478 1479 1481 1483 1485 1487 1488 1489 1490 1491 1491 1492 1493 1494 1494 1495 1496 1497 1498 1499 1500 1501 1503 1505 1507 1510 1513 1516 1519 1522 1525 1528 1531 1535 1538
1480 1477 1475 1474 1473 1472 1471 1471 1472 1473 1475 1477 1478 1481 1483 1485 1486 1487 1488 1488 1489 1491 1491 1492 1492 1493 1494 1494 1495 1496 1498 1500 1502 1505 1508 1511 1514 1517 1519 1522 1526 1529 1532
1476 1474 1472 1470 1469 1468 1467 1467 1466 1467 1468 1470 1472 1474 1477 1479 1481 1483 1484 1485 1486 1487 1488 1489 1489 1489 1490 1490 1491 1492 1494 1496 1498 1501 1504 1507 1509 1512 1515 1518 1520 1523 1526
1470 1468 1467 1466 1464 1463 1463 1462 1461 1460 1461 1463 1465 1468 1470 1473 1475 1477 1479 1481 1483 1482 1483 1485 1486 1486 1487 1487 1487 1489 1491 1492 1495 1498 1500 1503 1506 1508 1511 1513 1516 1518 1521
1463 1462 1461 1460 1459 1458 1458 1457 1456 1456 1455 1456 1458 1460 1462 1466 1469 1471 1473 1476 1477 1479 1479 1481 1482 1483 1483 1485 1485 1486 1488 1490 1492 1494 1497 1500 1502 1505 1507 1509 1512 1514 1517
1455 1454 1454 1453 1452 1452 1452 1451 1451 1451 1450 1450 1451 1452 1454 1458 1461 1464 1467 1470 1472 1474 1476 1478 1479 1479 1480 1482 1483 1484 1486 1487 1489 1491 1494 1497 1499 1502 1504 1506 1508 1511 1513
1446 1446 1445 1445 1445 1445 1445 1445 1445 1445 1445 1445 1445 1446 1447 1449 1452 1457 1460 1463 1466 1468 1471 1473 1475 1476 1477 1479 1480 1481 1483 1485 1486 1489 1491 1494 1496 1499 1501 1503 1505 1508 1510
1436 1436 1436 1435 1436 1436 1437 1438 1438 1439 1439 1439 1439 1440 1440 1441 1444 1448 1452 1456 1459 1462 1465 1468 1470 1472 1473 1475 1477 1479 1481 1483 1485 1487 1489 1491 1494 1497 1499 1501 1503 1506 1508
1427 1426 1425 1425 1426 1427 1428 1429 1431 1432 1433 1433 1434 1434 1435 1436 1436 1440 1444 1448 1452 1456 1459 1463 1465 1467 1469 1472 1474 1476 1479 1481 1484 1486 1488 1490 1493 1495 1498 1500 1502 1505 1507
1418 1416 1415 1415 1416 1417 1419 1421 1423 1424 1426 1427 1427 1428 1429 1430 1431 1433 1436 1440 1445 1448 1453 1456 1460 1463 1465 1468 1471 1473 1476 1479 1482 1485 1487 1490 1492 1495 1497 1500 1502 1504 1506
1409 1407 1405 1405 1406 1407 1409 1412 1415 1417 1418 1420 1421 1422 1423 1424 1425 1427 1429 1433 1437 1441 1446 1450 1454 1458 1460 1463 1467 1469 1472 1476 1480 1484 1486 1489 1492 1495 1497 1499 1502 1504 1507
1401 1398 1396 1395 1395 1397 1400 1403 1406 1409 1411 1412 1414 1416 1418 1419 1420 1422 1424 1426 1430 1434 1439 1444 1448 1453 1456 1459 1462 1465 1469 1474 1476 1480 1485 1488 1492 1494 1497 1499 1502 1504 1507
1392 1389 1387 1386 1386 1387 1390 1394 1397 1400 1403 1406 1408 1410 1412 1414 1416 1418 1420 1422 1424 1428 1433 1437 1442 1447 1452 1455 1458 1462 1466 1470 1475 1479 1484 1487 1490 1493 1496 1499 1502 1505 1507
1383 1380 1379 1378 1377 1379 1382 1386 1389 1393 1396 1399 1401 1404 1406 1409 1411 1413 1415 1418 1420 1423 1426 1431 1436 1441 1445 1450 1454 1459 1462 1466 1471 1476 1481 1484 1489 1492 1496 1499 1502 1505 1508
1376 1373 1371 1370 1370 1372 1375 1378 1382 1386 1390 1393 1395 1398 1401 1404 1407 1409 1411 1414 1416 1418 1421 1425 1429 1434 1440 1444 1449 1454 1457 1462 1466 1472 1477 1481 1486 1490 1496 1500 1502 1504 1507